モーリー-アタール彗星

C/2021 X1 ( Maury-Attard )

English version
Home page
Updated on February 29, 2024

---------------------------------------------------------------------

・ プロフィール

発見日 2021年12月2日
発見光度 19.0等
発見者 Alain Maury and Georges Attard (Maury, Attard, Parrott (MAP) survey project)

・ 写真集

・ 軌道要素

Epoch 2024 Mar. 31.0 TT = JDT 2460400.5
T 2023 May 27.13418 TT                                  Rudenko
q   3.2334009            (2000.0)            P               Q
z  -0.0000830      Peri.  334.56333     +0.82710611     +0.54953801
 +/-0.0000001      Node    10.59208     +0.55905316     -0.78277308
e   1.0002685      Incl.  140.09815     -0.05792282     +0.29201761
>From 2458 observations 2021 Dec. 2-2024 Jan. 30, mean residual 0".5.

・ 星図

・ 光度変化

        m1 = 6.5 + 5 logΔ + 10.0 log r(t + 50)

---------------------------------------------------------------------

軌道要素はM.P.E.C. 2024-D126に掲載されたものです。
星図はステラナビゲータ Ver.10 (アストロアーツ) で作成したものです。
光度グラフはComet for Windowsで作成したものです。

---------------------------------------------------------------------

Copyright(C) Seiichi Yoshida (comet@aerith.net). All rights reserved.